TimeEDT,TemperatureF,Dew PointF,Humidity,Sea Level PressureIn,VisibilityMPH,Wind Direction,Wind SpeedMPH,Gust SpeedMPH,PrecipitationIn,Events,Conditions,WindDirDegrees,DateUTC
12:58 AM,74.7,72.5,93,29.92,10.0,WNW,5.8,-,N/A,,Clear,290,2013-08-14 04:58:00
1:58 AM,74.3,72.5,94,29.92,10.0,West,8.1,-,N/A,,Partly Cloudy,280,2013-08-14 05:58:00
2:58 AM,73.9,72.5,95,29.91,10.0,West,8.1,-,N/A,,Clear,280,2013-08-14 06:58:00
3:58 AM,73.9,71.8,93,29.90,10.0,WNW,6.9,-,N/A,,Overcast,290,2013-08-14 07:58:00
4:58 AM,73.6,70.7,91,29.91,10.0,WNW,8.1,-,N/A,,Mostly Cloudy,300,2013-08-14 08:58:00
5:58 AM,72.1,70.7,95,29.91,10.0,West,4.6,-,N/A,,Mostly Cloudy,280,2013-08-14 09:58:00
6:58 AM,71.2,70.7,98,29.95,10.0,West,5.8,-,N/A,,Mostly Cloudy,280,2013-08-14 10:58:00
7:58 AM,71.4,70.9,98,29.96,10.0,West,5.8,-,N/A,,Mostly Cloudy,280,2013-08-14 11:58:00
8:58 AM,72.7,70.9,94,29.96,10.0,WNW,6.9,-,N/A,,Overcast,290,2013-08-14 12:58:00
9:01 AM,73.4,71.6,94,29.99,7.0,West,6.9,-,N/A,,Overcast,280,2013-08-14 13:01:00
9:58 AM,74.5,70.0,86,29.96,7.0,WNW,4.6,-,N/A,,Overcast,300,2013-08-14 13:58:00
10:58 AM,77.9,70.2,77,29.96,8.0,Variable,5.8,-,N/A,,Mostly Cloudy,0,2013-08-14 14:58:00
11:58 AM,80.8,69.6,69,29.97,10.0,NNW,8.1,-,N/A,,Mostly Cloudy,330,2013-08-14 15:58:00
12:58 PM,82.2,70.5,68,29.97,10.0,NW,5.8,-,N/A,,Mostly Cloudy,320,2013-08-14 16:58:00
1:58 PM,81.7,67.8,63,29.96,10.0,North,3.5,-,N/A,,Overcast,350,2013-08-14 17:58:00
2:58 PM,80.1,69.1,69,29.96,10.0,North,6.9,-,N/A,,Overcast,10,2013-08-14 18:58:00
3:58 PM,79.0,70.5,75,29.94,10.0,NW,10.4,-,N/A,,Overcast,310,2013-08-14 19:58:00
4:58 PM,79.0,70.2,74,29.94,10.0,NNW,6.9,-,N/A,,Overcast,330,2013-08-14 20:58:00
5:58 PM,78.1,70.3,77,29.95,10.0,NW,6.9,-,N/A,,Overcast,310,2013-08-14 21:58:00
6:58 PM,76.1,68.9,78,29.96,10.0,NNW,5.8,-,N/A,,Overcast,340,2013-08-14 22:58:00
7:58 PM,75.9,70.5,83,29.97,10.0,North,5.8,-,N/A,,Overcast,350,2013-08-14 23:58:00
8:33 PM,75.2,71.6,89,29.99,10.0,NNE,5.8,-,N/A,,Overcast,30,2013-08-15 00:33:00
8:54 PM,75.2,71.6,89,30.00,7.0,Variable,5.8,-,N/A,Rain,Light Rain Showers,0,2013-08-15 00:54:00
8:58 PM,75.2,71.2,87,29.98,7.0,South,8.1,-,N/A,Rain,Light Rain Showers,190,2013-08-15 00:58:00
9:19 PM,71.6,71.6,100,30.01,3.0,SSW,10.4,-,N/A,Rain,Light Rain,200,2013-08-15 01:19:00
9:28 PM,71.6,71.6,100,30.01,4.0,SSE,5.8,-,N/A,Rain,Light Rain,160,2013-08-15 01:28:00
9:45 PM,71.6,71.6,100,30.02,3.0,East,8.1,-,N/A,Rain,Light Rain,100,2013-08-15 01:45:00
9:46 PM,71.6,71.6,100,30.02,3.0,East,6.9,-,N/A,Rain,Light Rain,100,2013-08-15 01:46:00
9:58 PM,71.4,71.2,99,30.00,6.0,ESE,8.1,-,0.29,Rain,Light Rain,110,2013-08-15 01:58:00
10:33 PM,71.6,69.8,94,30.03,7.0,ESE,6.9,-,N/A,Rain,Light Rain,110,2013-08-15 02:33:00
10:58 PM,71.1,68.7,92,30.03,7.0,ESE,5.8,-,0.01,Rain,Light Rain,110,2013-08-15 02:58:00
10:59 PM,71.6,68.0,88,30.05,10.0,East,5.8,-,N/A,,Overcast,100,2013-08-15 02:59:00
11:54 PM,69.8,68.0,94,30.05,10.0,ESE,5.8,-,N/A,,Overcast,110,2013-08-15 03:54:00
11:58 PM,70.5,68.7,94,30.02,10.0,East,5.8,-,N/A,,Overcast,100,2013-08-15 03:58:00